Regional Weather Roundup
Issued by NWS

Home | Current Version | Previous Version | Graphics & Text | Print | Product List | Glossary On
Versions: 1 2 3 4 5 6 7 8 9 10 11 12 13 14 15 16 17 18 19 20 21 22 23 24 25 26 27 28 29 30 31 32 33 34 35 36 37 38 39 40 41 42 43 44 45 46 47 48 49 50
000
ASUS43 KDTX 250301
RWRMI
MICHIGAN HOURLY REGIONAL WEATHER ROUNDUP
NATIONAL WEATHER SERVICE DETROIT/PONTIAC MI
1000 PM EST FRI FEB 24 2017

NOTE: "FAIR" INDICATES FEW OR NO CLOUDS BELOW 12,000 FEET WITH NO
SIGNIFICANT WEATHER AND/OR OBSTRUCTION TO VISIBILITY.

MIZ047>049-052>055-059>063-066>070-074>076-081>083-250400-
SOUTHEAST LOWER MICHIGAN

CITY           SKY/WX    TMP DP  RH WIND       PRES   REMARKS
ADRIAN         LGT RAIN  57  57 100 W10       29.46R
ALMA           CLOUDY    38  38  98 S3        29.45R FOG
ANN ARBOR      LGT RAIN  57  54  89 SW9       29.42F
BAD AXE        LGT RAIN  51  51  97 S9        29.38F
CARO           LGT RAIN  49  49  99 S3        29.38F
DETROIT CITY   CLOUDY    59  51  75 S10       29.42F
DETROIT        CLOUDY    61  53  75 S12       29.41F
FLINT          CLOUDY    57  55  93 SW6       29.40R
GROSSE ILE     CLOUDY    47  44  89 S7        29.42F
HILLSDALE      RAIN      50  46  87 W15G23    29.46R
HOWELL         RAIN      57  53  88 SW13G20   29.42R

CITY           SKY/WX    TMP DP  RH WIND       PRES   REMARKS
JACKSON        LGT RAIN  51  47  86 W15G31    29.46R
LAMBERTVILLE   LGT RAIN  63  53  69 SW6       29.44R
LANSING        LGT RAIN  49  45  86 W18G25    29.45R FOG
LAPEER         CLOUDY    55  52  91 CALM      29.39F
MASON          LGT RAIN  52  51  94 W12G18    29.46R
MONROE         CLOUDY    62  53  71 S13G21    29.41F
MT. CLEMENS    MOCLDY    53  51  94 S10       29.41F
PONTIAC        CLOUDY    61  52  72 S10       29.39F
PORT HOPE        N/A     40  40 100 CALM      29.36F
PORT HURON     CLOUDY    57  50  77 S9        29.43F
TRI CITIES     CLOUDY    38  38 100 NE6       29.42S WCI  33
MIDLAND        CLOUDY    38  37  95 CALM      29.41F
TROY           CLOUDY    60  53  77 S5        29.43F
SAGINAW HB     LGT RAIN  37  36  93 CALM      29.41F
$$
MIZ043>046-050>051-056>058-064>065-071>073-077>080-250400-
SOUTHWEST LOWER MICHIGAN

CITY           SKY/WX    TMP DP  RH WIND       PRES   REMARKS
BATTLE CREEK   CLOUDY    43  41  93 W20G26    29.50R
BENTON HARBOR  CLOUDY    37  35  92 W14       29.57R WCI  28
BIG RAPIDS     CLOUDY    36  35  96 CALM      29.40F FOG
COLDWATER      CLOUDY    46  45  96 W15G21    29.51R FOG
FREMONT        CLOUDY    38  38 100 SW5       29.43R FOG     WCI  35
HOLLAND        FOG       38  36  92 SW14G22   29.51R VSB 1/2 WCI  30
GRAND RAPIDS   CLOUDY    43  39  86 SW20      29.47R
IONIA          CLOUDY    45  43  91 SW13G22   29.45R
KALAMAZOO      CLOUDY    42  37  82 W18G29    29.53R
LUDINGTON      CLOUDY    34  34 100 N5        29.42F FOG     WCI  30
MARSHALL       CLOUDY    46  44  92 W16G24    29.48R
MOUNT PLEASANT CLOUDY    37  36  99 CALM      29.42S FOG
MUSKEGON       FOG       37  36  96 SW8       29.47R VSB 1/2 WCI  31
SOUTH HAVEN    CLOUDY    37  37 100 SW12G17   29.56R FOG     WCI  29
$$
MIZ016>042-250400-
NORTHERN LOWER MICHIGAN

CITY           SKY/WX    TMP DP  RH WIND       PRES   REMARKS
ALPENA         CLOUDY    34  34 100 NE10      29.46F FOG     WCI  26
BEAVER ISLAND  LGT SNOW  27  26  98 NE13G18   29.52F WCI  16
BELLAIRE       CLOUDY    33  32  97 N3        29.47S FOG
CADILLAC       CLOUDY    32  32  99 NE6       29.39F FOG     WCI  27
CHARLEVOIX     CLOUDY    32  32 100 NE9       29.51F WCI  24
FRANKFORT      CLOUDY    33  32  96 N3        29.44F FOG
GAYLORD        CLOUDY    33  29  85 E10       29.44F FOG     WCI  25
GRAYLING       CLOUDY    33  32  96 NE7       29.43F FOG     WCI  27
HARBOR SPRINGS CLOUDY    31  30  96 NE12      29.48F FOG     WCI  22
HOUGHTON LAKE  CLOUDY    33  32  96 NE6       29.41F FOG     WCI  28
MANISTEE       CLOUDY    34  33  96 N3        29.43S
OSCODA         LGT SNOW  36  35  96 N9        29.40F WCI  29
PELLSTON       FRZ RAIN  31  28  89 NE17      29.50F FOG     WCI  19
ROGERS CITY    CLOUDY    32  31  96 NE6       29.50F WCI  27
TRAVERSE CITY  CLOUDY    34  33  96 NE9       29.43F FOG     WCI  27
$$
MIZ007>008-015-250400-
EASTERN UPPER MICHIGAN

CITY           SKY/WX    TMP DP  RH WIND       PRES   REMARKS
KINROSS        LGT SNOW  24  22  91 NE13      29.54F FOG     WCI  12
MACKINAC ISLAN CLOUDY    28  28 100 NE12G20   29.52F FOG     WCI  18
NEWBERRY       CLOUDY    21  20  97 N13       29.56F FOG     WCI   8
S. S. MARIE    MIX PCPN  25  18  74 NE10G18   29.56F WCI  15
MUNISING         N/A     26  23  88 NE20      29.61F WCI  12
$$
MIZ004>006-011>014-085-250400-
CENTRAL UPPER MICHIGAN

CITY           SKY/WX    TMP DP  RH WIND       PRES   REMARKS
MANISTIQUE     CLOUDY    24  23  97 N14G25    29.55F FOG     WCI  12
ESCANABA       LGT SNOW  26  24  92 N10G16    29.58F FOG     WCI  16
MENOMINEE      MIX PCPN  24  22  91 N14G22    29.59F FOG     WCI  12
SAWYER-GWINN   LGT SNOW  21  19  93 N18       29.61F WCI   6
$$
MIZ001>003-009>011-084-250400-
WESTERN UPPER MICHIGAN

CITY           SKY/WX    TMP DP  RH WIND       PRES   REMARKS
IRON MOUNTAIN  MIX PCPN  20  14  77 N18G26    29.61F WCI   5
HOUGHTON       LGT SNOW  19  14  81 N10       29.72F VSB 1   WCI   7
COPPER HARBOR    N/A     23  18  81 E22       29.74F WCI   8
IRONWOOD       LGT SNOW  17  14  88 N8        29.78S FOG     WCI   7
$$

ABBREVIATIONS USED IN REMARKS
   TC - TEMPERATURE IN CELSIUS
  WCI - WIND CHILL INDEX
   HX - HEAT INDEX
  VSB - VISIBILITY





USA.gov is the U.S. government's official web portal to all federal, state and local government web resources and services.